Sisseton, SD

12:26 AM CDT on June 25, 2017 (GMT -0500)
Sisseton

Weather History for K8D3 - May, 2013

Change the Weather History Date:

Friday, May 3, 2013

  Actual Average Record
Temperature  
Mean Temperature 37 °F 53 °F  
Max Temperature 52 °F 65 °F 93 °F (1949)
Min Temperature 21 °F 40 °F 19 °F (2005)
Degree Days  
Heating Degree Days 28 13  
Month to date heating degree days 84 39  
Since 1 July heating degree days 8844 7998  
Cooling Degree Days 0 0  
Month to date cooling degree days 0 0  
Year to date cooling degree days 0 1  
Moisture  
Dew Point 25 °F    
Average Humidity 68    
Maximum Humidity 100    
Minimum Humidity 36    
Precipitation  
Precipitation 0.00 in 0.08 in 1.27 in (1905)
Month to date precipitation 0.00 0.26  
Year to date precipitation 5.62 4.52  
Sea Level Pressure  
Sea Level Pressure 30.38 in    
Wind  
Wind Speed 11 mph (NNE)    
Max Wind Speed 23 mph    
Max Gust Speed 29 mph    
T = Trace of Precipitation, MM = Missing Value Source: NWS Daily Summary

Daily Weather History Graph

Daily Weather History Graph

Search for Another Location

Airport or City:

Trip Planner

Search our weather history database for the weather conditions in past years. The results will help you decide how hot, cold, wet, or windy it might be!

Date:

Astronomy

May. 03, 2013 Rise Set
Actual Time 6:12 AM CDT 8:38 PM CDT
Civil Twilight 5:39 AM CDT 9:11 PM CDT
Nautical Twilight 4:57 AM CDT 9:53 PM CDT
Astronomical Twilight 4:10 AM CDT 10:40 PM CDT
Moon 2:56 AM CDT (5/3) 2:15 PM CDT (5/3)
Length of Visible Light 15h 32m
Length of Day
14h 25m
Last Quarter, 37% of the Moon is Illuminated
May 3
Last Quarter
May 9
New
May 17
First Quarter
May 24
Full
May 31
Last Quarter

Hourly Weather History & Observations

Time (CDT) Temp. Windchill Dew Point Humidity Pressure Visibility Wind Dir Wind Speed Gust Speed Precip Events Conditions
12:56 AM 26.1 °F 19.4 °F 24.1 °F 92% 30.56 in - North 5.8 mph - N/A   Unknown
1:56 AM 24.1 °F 17.0 °F 21.9 °F 91% 30.54 in - NNW 5.8 mph - N/A   Unknown
2:56 AM 24.1 °F 17.0 °F 21.9 °F 91% 30.52 in - NNW 5.8 mph - N/A   Unknown
3:56 AM 23.0 °F 15.8 °F 21.0 °F 92% 30.51 in - NNW 5.8 mph - N/A   Unknown
4:56 AM 24.1 °F 17.0 °F 21.9 °F 91% 30.49 in - North 5.8 mph - N/A   Unknown
5:56 AM 21.9 °F 14.5 °F 21.0 °F 96% 30.49 in - North 5.8 mph - N/A   Unknown
6:56 AM 25.0 °F 17.1 °F 23.0 °F 92% 30.48 in - NNW 6.9 mph - N/A   Unknown
7:56 AM 30.0 °F 23.2 °F 27.0 °F 88% 30.48 in - North 6.9 mph - N/A   Unknown
8:56 AM 34.0 °F 26.0 °F 25.0 °F 70% 30.46 in - NNE 10.4 mph - N/A   Unknown
9:56 AM 36.0 °F 27.1 °F 24.1 °F 62% 30.44 in - NNE 13.8 mph - N/A   Unknown
10:56 AM 37.9 °F 29.6 °F 24.1 °F 57% 30.43 in - NNE 13.8 mph 21.9 mph N/A   Unknown
11:56 AM 41.0 °F 33.9 °F 25.0 °F 53% 30.40 in - ENE 12.7 mph 17.3 mph N/A   Unknown
12:56 PM 43.0 °F 36.8 °F 25.0 °F 49% 30.36 in - NE 11.5 mph - N/A   Unknown
1:56 PM 46.0 °F 40.2 °F 26.1 °F 46% 30.34 in - NNE 12.7 mph 24.2 mph N/A   Unknown
2:56 PM 48.0 °F - 26.1 °F 42% 30.32 in - NE 16.1 mph 21.9 mph N/A   Unknown
3:56 PM 50.0 °F - 25.0 °F 38% 30.28 in - NE 17.3 mph 23.0 mph N/A   Unknown
4:56 PM 51.1 °F - 26.1 °F 38% 30.26 in - NNE 18.4 mph 24.2 mph N/A   Unknown
5:56 PM 51.1 °F - 26.1 °F 38% 30.25 in - NE 19.6 mph 26.5 mph N/A   Unknown
6:56 PM 48.9 °F - 26.1 °F 41% 30.25 in - NNE 20.7 mph 25.3 mph N/A   Unknown
7:56 PM 46.9 °F - 27.0 °F 46% 30.25 in - NNE 15.0 mph - N/A   Unknown
8:56 PM 46.0 °F 40.2 °F 27.0 °F 47% 30.25 in - NE 12.7 mph - N/A   Unknown
9:56 PM 45.0 °F 39.7 °F 28.0 °F 52% 30.26 in - NE 10.4 mph - N/A   Unknown
10:56 PM 43.0 °F 38.8 °F 30.0 °F 60% 30.25 in - NE 6.9 mph - N/A   Unknown
11:56 PM 42.1 °F 37.1 °F 28.9 °F 60% 30.24 in - ENE 8.1 mph - N/A   Unknown